Location: Poughquag
(41.6090°N, 73.6820°W)
Time: 18:17:22
(UTC-05:00)

A-11 Canister half - Pass Details

Date: 15 December 2023
Orbit: 1526 x 1682 km, 47.3° (Epoch: 23 February)

Event Time Altitude Azimuth Distance (km) Brightness Sun altitude
Rises 19:32:08 0° 282° (WNW) 4,930 12.6 -34.0°
Reaches altitude 10° 19:35:22 10° 286° (WNW) 3,945 11.9 -34.6°
Maximum altitude 19:45:29 66° 8° (N) 1,807 9.1 -36.5°
Enters shadow 19:45:41 65° 13° (NNE) 1,807 9.1 -36.5°
